This is the latest recevied weather packets stored in our database for station/object KC8BSD. If no packets are shown the sender has not sent any weather packets the latest 10 day(s).
| Time | Temp. | Humidity | Pressure | Rain* | Wind** | Luminosity | Snow |
|---|---|---|---|---|---|---|---|
| 1777473833 | 8.89° C | 92% | 1014.1 hPa | 0 mm | - | 88 W/m² | - |
| 1777473529 | 8.89° C | 92% | 1014.2 hPa | 0 mm | - | 59 W/m² | - |
| 1777473225 | 8.89° C | 93% | 1014.1 hPa | 0 mm | - | 102 W/m² | - |
| 1777472922 | 8.89° C | 93% | 1014.4 hPa | 0 mm | - | 125 W/m² | - |
| 1777472618 | 8.89° C | 93% | 1014.2 hPa | 0 mm | - | 127 W/m² | - |
| 1777472315 | 8.89° C | 93% | 1014.4 hPa | 0 mm | - | 119 W/m² | - |
| 1777472013 | 8.33° C | 93% | 1014.6 hPa | 0 mm | - | 93 W/m² | - |
| 1777471708 | 8.33° C | 93% | 1014.6 hPa | 0 mm | - | 63 W/m² | - |
| 1777471405 | 8.89° C | 93% | 1014.5 hPa | 0 mm | - | 62 W/m² | - |
| 1777471102 | 8.33° C | 93% | 1014.5 hPa | 0 mm | - | 46 W/m² | - |
| 1777470798 | 8.33° C | 93% | 1014.7 hPa | 0 mm | - | 53 W/m² | - |
| 1777470495 | 8.33° C | 93% | 1014.8 hPa | 0 mm | - | 60 W/m² | - |
| 1777470191 | 8.33° C | 93% | 1014.6 hPa | 0 mm | - | 50 W/m² | - |
| 1777469887 | 8.33° C | 93% | 1014.8 hPa | 0 mm | - | 49 W/m² | - |
| 1777469583 | 8.33° C | 93% | 1014.6 hPa | 0 mm | - | 64 W/m² | - |
| 1777469277 | 8.33° C | 93% | 1014.9 hPa | 0 mm | - | 48 W/m² | - |
| 1777468974 | 8.33° C | 93% | 1014.9 hPa | 0 mm | - | 36 W/m² | - |
| 1777468669 | 8.33° C | 93% | 1015 hPa | 0 mm | - | 43 W/m² | - |
| 1777468366 | 8.33° C | 93% | 1014.9 hPa | 0 mm | - | 46 W/m² | - |
| 1777468062 | 8.33° C | 93% | 1014.7 hPa | 0 mm | - | 42 W/m² | - |
| 1777467758 | 8.33° C | 93% | 1014.8 hPa | 0 mm | - | 52 W/m² | - |
| 1777467453 | 8.33° C | 93% | 1014.7 hPa | 0 mm | - | 40 W/m² | - |
| 1777467149 | 8.33° C | 93% | 1014.8 hPa | 0 mm | - | 35 W/m² | - |
| 1777466847 | 8.33° C | 93% | 1014.9 hPa | 0 mm | - | 32 W/m² | - |
| 1777466544 | 8.33° C | 93% | 1015 hPa | 0 mm | - | 32 W/m² | - |
* Rain latest hour (hover to see other rain measurements)
** Current wind speed in m/s (hover to see current wind gust speed)